User: anonymous   Login
Location: ??????
(55.6361°N, 38.0803°E)
Time: 15:49:15
(UTC+00:00)
Language:

SL-16 R/B - Orbit

View from above orbital plane
View from above orbital plane
View from above satellite
View from above satellite

Ground track
Ground track

The orbit data is extracted from the following two-line orbital elements,

1 27006U 01056F   20184.93027654 -.00000049 +00000-0 -48494-5 0  9997
2 27006 099.4750 316.1290 0013896 302.7234 163.4424 13.70965723928748
Epoch (UTC): 02 July 2020 22:19:35
Eccentricity: 0.0013896
inclination: 99.4750°
perigee height: 986 km
apogee height: 1006 km
right ascension of ascending node: 316.1290°
argument of perigee: 302.7234°
revolutions per day: 13.70965723
mean anomaly at epoch: 163.4424°
orbit number at epoch: 92874

The dashed part of the orbit path shows where the satellite is in the earth's shadow,  

DLR